• In Deutschland
  • Länderverzeichnis
  • Für 7 Tage
  • Wassertemperatur
  • Satellitenkarten
  • Wetterkarte
  • Widgets
  • user-avatar
    Anmelden

    Stündliche Wetter Armawir

    Heute, 28 Mai, Montag

    Zeit Temperatur Niederschläge Wind Luftdruck Luftfeuchtigkeit
    00:00 +19°C° 0,5 mm 2 m/S 691 mmHg 72%
    01:00 +18°C° 0,2 mm 2 m/S 691 mmHg 74%
    02:00 +19°C° 0,2 mm 1 m/S 691 mmHg 75%
    03:00 +18°C° 0,2 mm 1 m/S 691 mmHg 77%
    04:00 +19°C° 0 mm 1 m/S 691 mmHg 74%
    05:00 +20°C° 0 mm 1 m/S 691 mmHg 72%
    06:00 +20°C° 0 mm 1 m/S 691 mmHg 70%
    07:00 +22°C° 0 mm 1 m/S 691 mmHg 63%
    08:00 +24°C° 0 mm 1 m/S 691 mmHg 56%
    09:00 +25°C° 0 mm 1 m/S 690 mmHg 49%
    10:00 +27°C° 0,1 mm 1 m/S 690 mmHg 46%
    11:00 +28°C° 0,1 mm 1 m/S 690 mmHg 42%
    12:00 +29°C° 0,1 mm 1 m/S 689 mmHg 38%
    13:00 +30°C° 0,1 mm 2 m/S 689 mmHg 36%
    14:00 +30°C° 0,1 mm 2 m/S 689 mmHg 35%
    15:00 +31°C° 0,1 mm 2 m/S 688 mmHg 34%
    16:00 +30°C° 0,1 mm 2 m/S 688 mmHg 36%
    17:00 +30°C° 0,1 mm 2 m/S 688 mmHg 38%
    18:00 +29°C° 0,1 mm 2 m/S 688 mmHg 41%
    19:00 +27°C° 0,2 mm 2 m/S 687 mmHg 46%
    20:00 +25°C° 0,2 mm 2 m/S 687 mmHg 52%
    21:00 +23°C° 0,2 mm 2 m/S 687 mmHg 57%
    22:00 +21°C° 0 mm 2 m/S 687 mmHg 58%
    23:00 +21°C° 0 mm 2 m/S 687 mmHg 59%

    Morgen, 29 Mai, Dienstag

    Zeit Temperatur Niederschläge Wind Luftdruck Luftfeuchtigkeit
    00:00 +21°C° 0 mm 2 m/S 687 mmHg 60%
    01:00 +21°C° 0 mm 2 m/S 687 mmHg 61%
    02:00 +20°C° 0 mm 2 m/S 687 mmHg 62%
    03:00 +20°C° 0 mm 2 m/S 686 mmHg 63%
    04:00 +20°C° 0 mm 2 m/S 686 mmHg 63%
    05:00 +21°C° 0 mm 2 m/S 686 mmHg 63%
    06:00 +21°C° 0 mm 2 m/S 686 mmHg 63%
    07:00 +23°C° 0,1 mm 2 m/S 686 mmHg 58%
    08:00 +24°C° 0,1 mm 2 m/S 686 mmHg 53%
    09:00 +25°C° 0,1 mm 2 m/S 686 mmHg 48%
    10:00 +25°C° 0,4 mm 2 m/S 686 mmHg 49%
    11:00 +26°C° 0,4 mm 2 m/S 687 mmHg 50%
    12:00 +26°C° 0,4 mm 2 m/S 687 mmHg 51%
    13:00 +25°C° 1 mm 2 m/S 686 mmHg 55%
    14:00 +24°C° 1 mm 2 m/S 686 mmHg 59%
    15:00 +23°C° 1 mm 2 m/S 686 mmHg 63%
    16:00 +23°C° 0,5 mm 2 m/S 685 mmHg 63%
    17:00 +22°C° 0,5 mm 3 m/S 685 mmHg 62%
    18:00 +22°C° 0,5 mm 3 m/S 685 mmHg 62%
    19:00 +21°C° 0,3 mm 3 m/S 685 mmHg 66%
    20:00 +20°C° 0,3 mm 2 m/S 685 mmHg 71%
    21:00 +19°C° 0,3 mm 2 m/S 685 mmHg 75%
    22:00 +18°C° 0,3 mm 2 m/S 685 mmHg 76%
    23:00 +18°C° 0,3 mm 2 m/S 685 mmHg 77%

    übermorgen, 30 Mai, Mittwoch

    Zeit Temperatur Niederschläge Wind Luftdruck Luftfeuchtigkeit
    00:00 +19°C° 0,3 mm 1 m/S 686 mmHg 79%
    01:00 +18°C° 0,3 mm 1 m/S 686 mmHg 79%
    02:00 +18°C° 0,3 mm 1 m/S 686 mmHg 80%
    03:00 +18°C° 0,3 mm 1 m/S 686 mmHg 81%
    04:00 +17°C° 0,3 mm 2 m/S 686 mmHg 79%
    05:00 +18°C° 0,3 mm 2 m/S 686 mmHg 78%
    06:00 +18°C° 0,3 mm 2 m/S 686 mmHg 77%
    07:00 +20°C° 0,1 mm 2 m/S 686 mmHg 71%
    08:00 +21°C° 0,1 mm 3 m/S 687 mmHg 65%
    09:00 +22°C° 0,1 mm 3 m/S 687 mmHg 59%
    10:00 +25°C° 0,2 mm 3 m/S 687 mmHg 54%
    11:00 +26°C° 0,2 mm 3 m/S 687 mmHg 50%
    12:00 +27°C° 0,2 mm 3 m/S 687 mmHg 46%
    13:00 +27°C° 0,6 mm 3 m/S 687 mmHg 45%
    14:00 +28°C° 0,6 mm 3 m/S 686 mmHg 44%
    15:00 +28°C° 0,6 mm 3 m/S 686 mmHg 42%
    16:00 +27°C° 0,7 mm 3 m/S 686 mmHg 46%
    17:00 +26°C° 0,7 mm 3 m/S 686 mmHg 50%
    18:00 +25°C° 0,7 mm 3 m/S 685 mmHg 54%
    19:00 +24°C° 0,4 mm 3 m/S 686 mmHg 59%
    20:00 +21°C° 0,4 mm 2 m/S 686 mmHg 64%
    21:00 +20°C° 0,4 mm 2 m/S 686 mmHg 69%
    22:00 +20°C° 0,4 mm 2 m/S 686 mmHg 70%
    23:00 +20°C° 0,4 mm 2 m/S 686 mmHg 71%

    31 Mai, Donnerstag

    Zeit Temperatur Niederschläge Wind Luftdruck Luftfeuchtigkeit
    00:00 +19°C° 0,4 mm 2 m/S 686 mmHg 72%
    01:00 +19°C° 0,2 mm 2 m/S 686 mmHg 73%
    02:00 +19°C° 0,2 mm 2 m/S 685 mmHg 74%
    03:00 +19°C° 0,2 mm 2 m/S 685 mmHg 75%
    04:00 +19°C° 0,1 mm 2 m/S 685 mmHg 74%
    05:00 +19°C° 0,1 mm 2 m/S 684 mmHg 73%
    06:00 +19°C° 0,1 mm 2 m/S 684 mmHg 72%
    07:00 +21°C° 0,2 mm 2 m/S 684 mmHg 66%
    08:00 +23°C° 0,2 mm 2 m/S 684 mmHg 60%
    09:00 +25°C° 0,2 mm 3 m/S 684 mmHg 53%
    10:00 +26°C° 0,5 mm 3 m/S 684 mmHg 49%
    11:00 +28°C° 0,5 mm 3 m/S 683 mmHg 45%
    12:00 +29°C° 0,5 mm 4 m/S 683 mmHg 41%
    13:00 +29°C° 1,1 mm 4 m/S 683 mmHg 42%
    14:00 +29°C° 1,1 mm 4 m/S 682 mmHg 43%
    15:00 +29°C° 1,1 mm 4 m/S 682 mmHg 44%
    16:00 +28°C° 0,9 mm 4 m/S 682 mmHg 45%
    17:00 +28°C° 0,9 mm 4 m/S 682 mmHg 47%
    18:00 +28°C° 0,9 mm 3 m/S 682 mmHg 48%
    19:00 +26°C° 0,2 mm 3 m/S 683 mmHg 52%
    20:00 +24°C° 0,2 mm 3 m/S 683 mmHg 56%
    21:00 +21°C° 0,2 mm 2 m/S 683 mmHg 60%
    22:00 +20°C° 0,1 mm 2 m/S 683 mmHg 62%
    23:00 +20°C° 0,1 mm 2 m/S 683 mmHg 64%

    1 Juni, Freitag

    Zeit Temperatur Niederschläge Wind Luftdruck Luftfeuchtigkeit
    00:00 +20°C° 0,1 mm 1 m/S 683 mmHg 66%
    01:00 +20°C° 0,1 mm 1 m/S 683 mmHg 67%
    02:00 +19°C° 0,1 mm 1 m/S 683 mmHg 69%
    03:00 +19°C° 0,1 mm 1 m/S 683 mmHg 70%
    04:00 +19°C° 0,1 mm 1 m/S 683 mmHg 69%
    05:00 +20°C° 0,1 mm 1 m/S 683 mmHg 68%
    06:00 +20°C° 0,1 mm 1 m/S 684 mmHg 67%
    07:00 +21°C° 0 mm 2 m/S 684 mmHg 61%
    08:00 +24°C° 0 mm 2 m/S 684 mmHg 55%
    09:00 +25°C° 0 mm 3 m/S 684 mmHg 49%
    10:00 +26°C° 0 mm 3 m/S 684 mmHg 46%
    11:00 +27°C° 0 mm 4 m/S 684 mmHg 43%
    12:00 +28°C° 0 mm 4 m/S 683 mmHg 40%
    13:00 +28°C° 0,2 mm 4 m/S 683 mmHg 39%
    14:00 +29°C° 0,2 mm 4 m/S 683 mmHg 38%
    15:00 +29°C° 0,2 mm 4 m/S 683 mmHg 37%
    16:00 +29°C° 0,4 mm 4 m/S 683 mmHg 39%
    17:00 +28°C° 0,4 mm 4 m/S 683 mmHg 42%
    18:00 +27°C° 0,4 mm 3 m/S 683 mmHg 44%
    19:00 +25°C° 0,4 mm 3 m/S 683 mmHg 49%
    20:00 +23°C° 0,4 mm 2 m/S 683 mmHg 54%
    21:00 +20°C° 0,4 mm 2 m/S 683 mmHg 59%
    22:00 +21°C° 0,2 mm 1 m/S 683 mmHg 60%
    23:00 +20°C° 0,2 mm 1 m/S 683 mmHg 62%

    2 Juni, Samstag

    Zeit Temperatur Niederschläge Wind Luftdruck Luftfeuchtigkeit
    00:00 +20°C° 0,2 mm 1 m/S 683 mmHg 64%
    01:00 +19°C° 0,1 mm 1 m/S 683 mmHg 65%
    02:00 +19°C° 0,1 mm 1 m/S 683 mmHg 66%
    03:00 +18°C° 0,1 mm 1 m/S 683 mmHg 67%
    04:00 +19°C° 0 mm 1 m/S 683 mmHg 65%
    05:00 +20°C° 0 mm 1 m/S 684 mmHg 64%
    06:00 +21°C° 0 mm 1 m/S 684 mmHg 63%
    07:00 +21°C° 0 mm 2 m/S 684 mmHg 57%
    08:00 +24°C° 0 mm 2 m/S 684 mmHg 51%
    09:00 +25°C° 0 mm 2 m/S 684 mmHg 45%
    10:00 +26°C° 0,2 mm 2 m/S 684 mmHg 43%
    11:00 +27°C° 0,2 mm 3 m/S 684 mmHg 41%
    12:00 +28°C° 0,2 mm 3 m/S 684 mmHg 39%
    13:00 +29°C° 0,4 mm 3 m/S 684 mmHg 38%
    14:00 +29°C° 0,4 mm 3 m/S 683 mmHg 38%
    15:00 +29°C° 0,4 mm 3 m/S 683 mmHg 37%
    16:00 +28°C° 0,4 mm 3 m/S 683 mmHg 40%
    17:00 +28°C° 0,4 mm 3 m/S 684 mmHg 43%
    18:00 +27°C° 0,4 mm 3 m/S 684 mmHg 45%
    19:00 +25°C° 0,6 mm 2 m/S 684 mmHg 50%
    20:00 +23°C° 0,6 mm 2 m/S 684 mmHg 55%
    21:00 +21°C° 0,6 mm 2 m/S 685 mmHg 60%
    22:00 +21°C° 0,3 mm 1 m/S 685 mmHg 62%
    23:00 +20°C° 0,3 mm 1 m/S 685 mmHg 64%
    Mehr zeigen